Torna al catalogo

STARLINK-4205

AttivoComunicazioniVLEO
NORAD 53174·PAYLOAD·🇺🇸 United States

Lanciato Jul 17, 2022 da Cape Canaveral Space Force Station

Loading…

Prossimi Passaggi (prossime 24 ore)

TLE

AggiornatoSource: CelesTrak SupGP

Epoca: Sep 14, 2026, 21:56 UTC

1 53174C 22083AU  26257.91437500 -.00002171  00000+0 -69815-4 0  2578
2 53174  53.1582  29.9456 0001134  85.2196 165.1963 15.31703163    13

Traccia STARLINK-4205 in tempo reale con AllMySat

Download on the App Store